Regional Weather Roundup
Issued by NWS

Current Version | Previous Version | Text Only | Print | Product List | Glossary On
Versions: 1 2 3 4 5 6 7 8 9 10 11 12 13 14 15 16 17 18 19 20 21 22 23 24 25 26 27 28 29 30 31 32 33 34 35 36 37 38 39 40 41 42 43 44 45 46 47 48 49 50
156
ASUS46 KPQR 270010
RWROR

OREGON REGIONAL WEATHER ROUNDUP
NATIONAL WEATHER SERVICE PORTLAND OR
500 PM PDT MON SEP 26 2016

NOTE: "FAIR" INDICATES FEW OR NO CLOUDS BELOW 12,000 FEET WITH
NO SIGNIFICANT WEATHER AND/OR OBSTRUCTIONS TO VISIBILITY.

ORZ001>013-270100-
NORTHWEST OREGON


CITY           SKY/WX    TMP DP  RH WIND       PRES   REMARKS
ASTORIA        SUNNY     68  60  75 NW17      30.06S
6HR MIN TEMP:  68; 6HR MAX TEMP:  77;

NEWPORT        SUNNY     61  57  88 NW13      30.10F
PORTLAND       SUNNY     88  51  28 CALM      29.97F
6HR MIN TEMP:  70; 6HR MAX TEMP:  88;

VANCOUVER WA   SUNNY     87  52  29 CALM      29.96F
6HR MIN TEMP:  70; 6HR MAX TEMP:  87;

SCAPPOOSE      SUNNY     89  53  29 CALM      29.97S
6HR MIN TEMP:  72; 6HR MAX TEMP:  89;

HILLSBORO      SUNNY     89  53  29 N5        29.97S
6HR MIN TEMP:  73; 6HR MAX TEMP:  90;

AURORA         SUNNY     86  55  34 S5        29.98F
6HR MIN TEMP:  71; 6HR MAX TEMP:  87;

MCMINNVILLE    SUNNY     90  55  30 CALM      29.98S
6HR MIN TEMP:  73; 6HR MAX TEMP:  90;

SALEM          SUNNY     89  54  30 CALM      29.97S
6HR MIN TEMP:  73; 6HR MAX TEMP:  90;

CORVALLIS        N/A     88  57  35 NW18G24   30.00S
EUGENE         SUNNY     90  53  28 VRB6      29.98F
6HR MIN TEMP:  72; 6HR MAX TEMP:  91;

$$

ORZ021-028-270100-
SOUTHWEST OREGON


CITY           SKY/WX    TMP DP  RH WIND       PRES   REMARKS
NORTH BEND     MOSUNNY   64  59  82 N17       30.09F
6HR MIN TEMP:  64; 6HR MAX TEMP:  72;

BROOKINGS      SUNNY     75  54  47 SE7       30.00F
ROSEBURG       SUNNY     93  47  20 NW8       29.97S
6HR MIN TEMP:  70; 6HR MAX TEMP:  95;

SEXTON SUMMIT  SUNNY     83  38  20 VRB3      30.16F
6HR MIN TEMP:  80; 6HR MAX TEMP:  85;

MEDFORD        SUNNY     98  38  12 NW8       29.96F HX  93
6HR MIN TEMP:  74; 6HR MAX TEMP:  98;

$$

ORZ014>016-041-270100-
COLUMBIA GORGE


CITY           SKY/WX    TMP DP  RH WIND       PRES   REMARKS
TROUTDALE      SUNNY     87  55  33 VRB5      29.96F
6HR MIN TEMP:  72; 6HR MAX TEMP:  87;

THE DALLES     SUNNY     89  39  17 CALM      29.94F
6HR MIN TEMP:  69; 6HR MAX TEMP:  90;

$$

ORZ029>031-041-044-049-050-061>064-502-503-505>511-270100-
EASTERN OREGON


CITY           SKY/WX    TMP DP  RH WIND       PRES   REMARKS
REDMOND        SUNNY     92  29  10 NW12      30.06F
6HR MIN TEMP:  81; 6HR MAX TEMP:  93;

BEND           NOT AVBL
PRINEVILLE     SUNNY     90  34  13 N7        30.07F
KLAMATH FALLS  SUNNY     86  36  16 NE3       30.15F
6HR MIN TEMP:  69; 6HR MAX TEMP:  86;

LAKEVIEW       SUNNY     82  34  17 CALM      30.20F
HERMISTON      SUNNY     86  48  26 N6        29.97F
6HR MIN TEMP:  72; 6HR MAX TEMP:  87;

PENDLETON      SUNNY     87  43  21 NE7       30.00F
6HR MIN TEMP:  73; 6HR MAX TEMP:  89;

JOHN DAY       SUNNY     88  35  15 S13       30.13F
MEACHAM        SUNNY     82  33  17 CALM      30.14F
6HR MIN TEMP:  75; 6HR MAX TEMP:  84;

LA GRANDE      SUNNY     84  39  20 S15       30.09F
6HR MIN TEMP:  66; 6HR MAX TEMP:  88;

BAKER CITY     SUNNY     79  36  21 E18       30.16F
6HR MIN TEMP:  70; 6HR MAX TEMP:  82;

BURNS          SUNNY     83  33  16 E5        30.19F
6HR MIN TEMP:  74; 6HR MAX TEMP:  84;

ROME             N/A     88  33  14 N3        30.15F
6HR MIN TEMP:  72; 6HR MAX TEMP:  89;

ONTARIO        SUNNY     83  39  21 CALM      30.15F
6HR MIN TEMP:  67; 6HR MAX TEMP:  83;

$$




USA.gov is the U.S. government's official web portal to all federal, state and local government web resources and services.